CW4713 Weather Reports


Display with metric or nautical units.
time (UTC)temp
F
wind
direction
speed
MPH
gust
MPH
rain 1hr
in
rain 24hr
in
rain mn
in
humidity
%
barometer
mb
20260506175804 44 96 1.0 2.0 0.00 0.00 0.00 76 1011.8
20260506175306 44 178 2.0 3.0 0.00 0.00 0.00 77 1011.8
20260506174804 44 165 1.0 2.0 0.00 0.00 0.00 77 1011.7
20260506174305 43 192 1.0 2.0 0.00 0.00 0.00 77 1011.5
20260506173804 43 212 1.0 2.0 0.00 0.00 0.00 77 1011.7
20260506173305 43 231 2.0 2.0 0.00 0.00 0.00 77 1011.7
20260506172805 43 203 0.0 2.0 0.00 0.00 0.00 78 1011.7
20260506172307 43 229 2.0 2.0 0.00 0.00 0.00 78 1011.6
20260506171804 43 199 0.0 0.0 0.00 0.00 0.00 78 1011.6
20260506171304 42 199 0.0 2.0 0.00 0.00 0.00 78 1011.6
20260506170804 42 241 0.0 1.0 0.00 0.00 0.00 78 1011.5
20260506170304 42 241 0.0 1.0 0.00 0.00 0.00 79 1011.5
20260506165804 42 220 0.0 0.0 0.00 0.00 0.00 79 1011.5
20260506165306 42 220 0.0 0.0 0.00 0.00 0.00 79 1011.4
20260506164805 42 220 0.0 2.0 0.00 0.00 0.00 79 1011.4
20260506164304 42 196 2.0 2.0 0.00 0.00 0.00 79 1011.3
20260506163805 42 194 1.0 2.0 0.00 0.00 0.00 79 1011.3
20260506163304 42 197 2.0 2.0 0.00 0.00 0.00 79 1011.2
20260506162804 42 148 0.0 1.0 0.00 0.00 0.00 80 1011.2
20260506162307 41 146 1.0 2.0 0.00 0.00 0.00 80 1011.2
20260506161805 41 209 0.0 0.0 0.00 0.00 0.00 80 1011.1
20260506161304 41 209 0.0 0.0 0.00 0.00 0.00 80 1011.1
20260506160804 41 209 0.0 0.0 0.00 0.00 0.00 80 1011.2
20260506160304 41 209 0.0 2.0 0.00 0.00 0.00 80 1011.1
20260506155804 41 211 2.0 5.0 0.00 0.00 0.00 80 1011.1
20260506155306 41 16 1.0 5.0 0.00 0.00 0.00 80 1011.1
20260506154804 41 345 0.0 6.0 0.00 0.00 0.00 80 1011.0
20260506154304 41 29 3.0 7.0 0.00 0.00 0.00 80 1010.9
20260506153804 41 42 3.0 8.0 0.00 0.00 0.00 80 1010.9
20260506153304 41 18 3.0 10.0 0.00 0.00 0.00 80 1010.9
20260506152804 40 21 5.0 10.0 0.00 0.00 0.00 81 1010.9
20260506152306 40 20 5.0 8.0 0.00 0.00 0.00 81 1010.9
20260506151804 40 7 3.0 6.0 0.00 0.00 0.00 81 1010.8
20260506151304 40 17 3.0 7.0 0.00 0.00 0.00 81 1010.8
20260506150804 39 24 3.0 7.0 0.00 0.00 0.00 82 1010.8
20260506150305 39 357 2.0 5.0 0.00 0.00 0.00 82 1010.8
20260506145804 38 15 2.0 3.0 0.00 0.00 0.00 82 1010.8
20260506145306 38 16 1.0 3.0 0.00 0.00 0.00 82 1010.8
20260506144804 38 36 0.0 5.0 0.00 0.00 0.00 82 1010.7
20260506144304 38 15 1.0 2.0 0.00 0.00 0.00 82 1010.8
20260506143805 38 28 0.0 2.0 0.00 0.00 0.00 82 1010.7
20260506143304 38 17 1.0 3.0 0.00 0.00 0.00 82 1010.7
20260506142804 38 27 1.0 3.0 0.00 0.00 0.00 82 1010.7
20260506142306 37 9 2.0 5.0 0.00 0.00 0.00 82 1010.7
20260506141804 37 3 1.0 5.0 0.00 0.00 0.00 82 1010.7
20260506141305 37 26 2.0 5.0 0.00 0.00 0.00 83 1010.7
20260506140804 37 24 2.0 5.0 0.00 0.00 0.00 83 1010.7
20260506140304 36 350 3.0 5.0 0.00 0.00 0.00 82 1010.7
20260506135804 37 349 2.0 3.0 0.00 0.00 0.00 82 1010.7
20260506135306 36 11 2.0 2.0 0.00 0.00 0.00 82 1010.8
20260506134805 37 11 1.0 3.0 0.00 0.00 0.00 82 1010.7
20260506134304 37 0 1.0 3.0 0.00 0.00 0.00 82 1010.8
20260506133804 37 25 0.0 0.0 0.00 0.00 0.00 82 1010.7
20260506133304 37 25 0.0 0.0 0.00 0.00 0.00 82 1010.7
20260506132804 37 25 0.0 0.0 0.00 0.00 0.00 82 1010.7
20260506132307 37 25 0.0 0.0 0.00 0.00 0.00 82 1010.7
20260506131804 37 25 0.0 0.0 0.00 0.00 0.00 81 1010.6
20260506131304 37 14 1.0 2.0 0.00 0.00 0.00 81 1010.6
20260506130804 37 150 0.0 1.0 0.00 0.00 0.00 81 1010.6
20260506130304 37 158 0.0 0.0 0.00 0.00 0.00 81 1010.6
20260506125804 37 158 0.0 0.0 0.00 0.00 0.00 81 1010.5
20260506125306 37 158 0.0 1.0 0.00 0.00 0.00 81 1010.5
20260506124804 37 31 0.0 0.0 0.00 0.00 0.00 81 1010.5
20260506124304 37 31 0.0 0.0 0.00 0.00 0.00 80 1010.5
20260506123804 37 42 1.0 2.0 0.00 0.00 0.00 80 1010.5
20260506123304 37 116 0.0 2.0 0.00 0.00 0.00 80 1010.4
20260506122804 37 114 0.0 2.0 0.00 0.00 0.00 80 1010.4
20260506122306 37 121 2.0 3.0 0.00 0.00 0.00 80 1010.3
20260506121804 37 320 0.0 0.0 0.00 0.00 0.00 80 1010.3
20260506121304 37 320 0.0 0.0 0.00 0.00 0.00 79 1010.3
20260506120804 37 320 0.0 0.0 0.00 0.00 0.00 79 1010.3
20260506120304 38 320 0.0 0.0 0.00 0.00 0.00 79 1010.2
20260506115804 38 320 0.0 0.0 0.00 0.00 0.00 79 1010.2
20260506115307 38 320 0.0 0.0 0.00 0.00 0.00 78 1010.2
20260506114804 38 320 0.0 0.0 0.00 0.00 0.00 78 1010.2
20260506104304 40 128 0.0 0.0 0.00 0.00 0.00 75 1009.9
20260506103804 40 128 1.0 2.0 0.00 0.00 0.00 75 1009.9
20260506103303 40 246 1.0 3.0 0.00 0.00 0.00 76 1009.8
20260506102804 39 292 2.0 3.0 0.00 0.00 0.00 76 1009.8
20260506102305 39 253 4.0 7.0 0.00 0.00 0.00 76 1009.8
20260506101804 38 258 0.0 0.0 0.00 0.00 0.00 76 1009.8
20260506101304 38 185 1.0 5.0 0.00 0.00 0.00 76 1009.8
20260506100804 38 58 1.0 3.0 0.00 0.00 0.00 77 1009.8
20260506100304 38 29 1.0 2.0 0.00 0.00 0.00 76 1009.8
20260506095804 38 195 3.0 5.0 0.00 0.00 0.00 76 1009.7
20260506095305 38 356 0.0 0.0 0.00 0.00 0.00 76 1009.7
20260506094804 38 356 0.0 1.0 0.00 0.00 0.00 76 1009.7
20260506094304 38 17 0.0 2.0 0.00 0.00 0.00 76 1009.6
20260506084304 39 32 0.0 2.0 0.00 0.00 0.00 73 1009.1
20260506083805 39 158 1.0 2.0 0.00 0.00 0.00 73 1009.0
20260506083304 39 66 2.0 3.0 0.00 0.00 0.00 73 1009.0
20260506082804 39 332 1.0 2.0 0.00 0.00 0.00 73 1008.9
20260506082305 39 353 0.0 0.0 0.00 0.00 0.00 73 1008.9
20260506081805 38 353 1.0 2.0 0.00 0.00 0.00 72 1008.8
20260506081304 39 195 0.0 2.0 0.00 0.00 0.00 72 1008.8
20260506080805 39 244 1.0 5.0 0.00 0.00 0.00 72 1008.8
20260506080305 39 257 1.0 2.0 0.00 0.00 0.00 71 1008.7
20260506062305 45 357 0.0 0.0 0.00 0.00 0.00 61 1007.9
20260506061804 45 357 0.0 0.0 0.00 0.00 0.00 60 1007.8
20260506061304 46 357 0.0 0.0 0.00 0.00 0.00 59 1007.8
20260506060804 46 357 0.0 0.0 0.00 0.00 0.00 58 1007.7
20260506060303 46 357 0.0 0.0 0.00 0.00 0.00 58 1007.6
20260506051304 49 189 0.0 2.0 0.00 0.00 0.00 52 1007.1
20260506050804 49 162 0.0 2.0 0.00 0.00 0.00 51 1007.1
20260506050304 49 148 0.0 2.0 0.00 0.00 0.00 51 1007.0
20260506044804 50 141 3.0 7.0 0.00 0.00 0.00 49 1006.8
20260506044304 50 153 4.0 9.0 0.00 0.00 0.00 49 1006.8
20260506043804 51 186 4.0 14.0 0.00 0.00 0.00 49 1006.7
20260506043304 51 178 4.0 9.0 0.00 0.00 0.00 48 1006.6
20260506042804 52 164 7.0 14.0 0.00 0.00 0.00 47 1006.6
20260506042305 52 148 3.0 13.0 0.00 0.00 0.00 47 1006.6
20260506041804 53 168 6.0 10.0 0.00 0.00 0.00 46 1006.5
20260506041304 54 177 6.0 10.0 0.00 0.00 0.00 46 1006.5
20260506040805 54 190 3.0 8.0 0.00 0.00 0.00 46 1006.3
20260506040304 54 175 3.0 13.0 0.00 0.00 0.00 46 1006.2
20260506035804 55 179 3.0 8.0 0.00 0.00 0.00 47 1006.2
20260506035306 54 208 6.0 12.0 0.00 0.00 0.00 46 1006.2
20260506034804 54 213 1.0 3.0 0.00 0.00 0.00 49 1006.2
20260506034304 54 17 1.0 3.0 0.00 0.00 0.00 49 1006.1
20260506033804 53 84 2.0 6.0 0.00 0.00 0.00 48 1006.1
20260506033304 53 158 2.0 6.0 0.00 0.00 0.00 48 1006.1
20260506032804 53 154 2.0 9.0 0.00 0.00 0.00 48 1006.0
20260506032306 53 162 3.0 8.0 0.00 0.00 0.00 47 1005.9
20260506031804 54 172 5.0 9.0 0.00 0.00 0.00 47 1005.8
20260506031304 54 167 5.0 8.0 0.00 0.00 0.00 48 1005.8
20260506030804 54 92 6.0 12.0 0.00 0.00 0.00 47 1005.7
20260506030304 55 4 3.0 8.0 0.00 0.00 0.00 50 1005.8
20260506025804 54 311 4.0 8.0 0.00 0.00 0.00 50 1005.7
20260506025305 54 7 6.0 7.0 0.00 0.00 0.00 51 1005.6
20260506024804 54 342 2.0 3.0 0.00 0.00 0.00 52 1005.6
20260506024304 54 357 4.0 6.0 0.00 0.00 0.00 52 1005.6
20260506023803 53 356 1.0 5.0 0.00 0.00 0.00 53 1005.7
20260506023304 53 77 2.0 5.0 0.00 0.00 0.00 53 1005.6
20260506022804 53 39 2.0 7.0 0.00 0.00 0.00 53 1005.6
20260506022306 53 337 5.0 9.0 0.00 0.00 0.00 52 1005.6
20260506021804 53 10 0.0 2.0 0.00 0.00 0.00 52 1005.6
20260506021304 53 20 4.0 7.0 0.00 0.00 0.00 51 1005.6
20260506020804 53 32 1.0 3.0 0.00 0.00 0.00 53 1005.6
20260506020304 53 199 3.0 6.0 0.00 0.00 0.00 54 1005.6
20260506015804 53 35 0.0 2.0 0.00 0.00 0.00 55 1005.6
20260506015306 53 315 0.0 3.0 0.00 0.00 0.00 55 1005.6
20260506014804 53 354 3.0 6.0 0.00 0.00 0.00 54 1005.6
20260506014304 53 2 3.0 7.0 0.00 0.00 0.00 54 1005.6
20260506013804 53 56 5.0 7.0 0.00 0.00 0.00 54 1005.6
20260506013304 53 43 5.0 7.0 0.00 0.00 0.00 54 1005.6
20260506012804 54 229 2.0 5.0 0.00 0.00 0.00 56 1005.7
20260506012307 54 160 3.0 6.0 0.00 0.00 0.00 56 1005.7
20260506011804 54 165 3.0 8.0 0.00 0.00 0.00 57 1005.7
20260506011304 53 163 2.0 9.0 0.00 0.00 0.00 61 1005.7
20260506010804 53 217 0.0 2.0 0.00 0.00 0.00 63 1005.7
20260506010304 53 151 3.0 7.0 0.00 0.00 0.00 63 1005.7
20260506005804 52 51 1.0 3.0 0.00 0.00 0.00 64 1005.7
20260506005306 52 358 2.0 3.0 0.00 0.00 0.00 65 1005.6
20260506004804 51 313 2.0 6.0 0.00 0.00 0.00 65 1005.6
20260506004304 51 267 0.0 2.0 0.00 0.00 0.00 64 1005.7
20260506003805 51 313 1.0 3.0 0.00 0.00 0.00 65 1005.7
20260506003305 51 30 3.0 7.0 0.00 0.00 0.00 65 1005.7
20260506002804 51 15 3.0 7.0 0.00 0.00 0.00 65 1005.7
20260506002306 51 37 2.0 8.0 0.00 0.00 0.00 64 1005.8
20260506001804 51 21 5.0 9.0 0.00 0.00 0.00 65 1005.8
20260506001304 52 56 4.0 7.0 0.00 0.00 0.00 65 1005.8
20260506000804 52 57 5.0 8.0 0.00 0.00 0.00 65 1005.8
20260506000304 52 179 3.0 8.0 0.00 0.00 0.00 65 1005.8
20260505235804 52 323 2.0 8.0 0.00 0.01 0.00 65 1005.8
20260505235305 52 327 5.0 9.0 0.00 0.01 0.00 66 1005.7
20260505234805 51 13 5.0 9.0 0.00 0.01 0.00 67 1005.8
20260505234304 51 328 5.0 9.0 0.00 0.01 0.00 67 1005.8
20260505233804 51 357 5.0 9.0 0.00 0.01 0.00 67 1005.8
20260505233305 51 35 3.0 6.0 0.00 0.01 0.00 67 1005.8
20260505232804 51 352 5.0 8.0 0.00 0.01 0.00 67 1005.8
20260505232305 50 25 3.0 7.0 0.00 0.01 0.00 69 1005.8
20260505231805 50 337 2.0 5.0 0.00 0.01 0.00 70 1005.8
20260505231304 50 232 0.0 0.0 0.00 0.01 0.00 70 1005.8
20260505230804 50 232 0.0 0.0 0.00 0.01 0.00 70 1005.8
20260505230304 49 210 0.0 1.0 0.00 0.01 0.00 71 1005.8
20260505225804 49 288 2.0 5.0 0.00 0.01 0.00 70 1005.8
20260505225306 49 274 2.0 6.0 0.00 0.01 0.00 70 1005.8
20260505224804 49 280 2.0 5.0 0.00 0.01 0.00 69 1005.8
20260505224304 49 270 3.0 7.0 0.00 0.01 0.00 69 1005.7
20260505223804 49 288 2.0 7.0 0.00 0.01 0.00 70 1005.7
20260505223304 49 270 3.0 7.0 0.00 0.01 0.00 71 1005.7
20260505222804 49 286 2.0 5.0 0.00 0.01 0.00 71 1005.6
20260505222305 49 286 2.0 6.0 0.00 0.01 0.00 72 1005.6
20260505221804 49 290 2.0 6.0 0.00 0.01 0.00 71 1005.6
20260505221304 49 292 1.0 6.0 0.00 0.01 0.00 72 1005.6
20260505220805 49 300 3.0 7.0 0.00 0.01 0.00 72 1005.6
20260505220305 49 302 3.0 7.0 0.00 0.01 0.00 72 1005.6
20260505215804 50 297 5.0 8.0 0.00 0.01 0.00 72 1005.5
20260505215305 50 296 3.0 7.0 0.00 0.01 0.00 72 1005.4
20260505214804 50 267 0.0 0.0 0.00 0.01 0.00 72 1005.4
20260505214304 50 267 0.0 5.0 0.00 0.01 0.00 70 1005.4
20260505213804 50 290 1.0 5.0 0.00 0.01 0.00 70 1005.3
20260505213304 49 237 3.0 5.0 0.00 0.01 0.00 71 1005.2
20260505212804 49 271 2.0 5.0 0.00 0.01 0.00 71 1005.3
20260505212305 50 265 2.0 6.0 0.00 0.01 0.00 74 1005.2
20260505211804 49 291 4.0 6.0 0.00 0.01 0.00 75 1005.2
20260505211304 49 323 4.0 8.0 0.00 0.01 0.00 75 1005.2
20260505210804 49 324 5.0 9.0 0.00 0.01 0.00 76 1005.1
20260505210304 49 304 3.0 8.0 0.00 0.01 0.00 77 1005.1
20260505205804 49 306 3.0 7.0 0.00 0.01 0.00 78 1005.1
20260505205305 49 333 4.0 7.0 0.00 0.01 0.00 78 1005.1
20260505204805 48 308 5.0 10.0 0.00 0.01 0.00 78 1005.0
20260505204304 48 313 4.0 6.0 0.00 0.01 0.00 75 1005.0
20260505203804 48 310 2.0 7.0 0.00 0.01 0.00 81 1005.0
20260505203304 48 310 4.0 7.0 0.00 0.01 0.00 83 1004.9
20260505202805 48 308 3.0 7.0 0.00 0.01 0.00 83 1004.9
20260505202306 48 305 2.0 7.0 0.00 0.01 0.00 84 1004.9
20260505201804 48 318 4.0 7.0 0.00 0.01 0.00 84 1004.8
20260505201304 48 290 2.0 7.0 0.00 0.01 0.00 85 1004.8
20260505200804 48 315 3.0 8.0 0.00 0.01 0.00 86 1004.8
20260505200304 48 293 3.0 6.0 0.00 0.01 0.00 87 1004.8
20260505195804 48 293 1.0 5.0 0.00 0.01 0.00 89 1004.8
20260505194804 47 326 3.0 8.0 0.00 0.01 0.00 90 1004.7
20260505194304 47 316 5.0 7.0 0.00 0.01 0.00 90 1004.7
20260505193803 47 305 3.0 7.0 0.00 0.01 0.00 91 1004.7
20260505193304 46 294 2.0 5.0 0.00 0.01 0.00 91 1004.7
20260505192804 46 326 3.0 6.0 0.00 0.01 0.00 93 1004.7
20260505192305 46 338 4.0 7.0 0.00 0.01 0.00 95 1004.6
20260505191803 45 337 4.0 7.0 0.00 0.01 0.00 96 1004.6
20260505191304 45 333 0.0 3.0 0.00 0.01 0.00 96 1004.6
20260505190804 45 1 2.0 5.0 0.00 0.01 0.00 96 1004.6
20260505190304 45 323 0.0 0.0 0.00 0.01 0.00 96 1004.6
20260505185804 44 323 0.0 0.0 0.00 0.01 0.00 96 1004.6
20260505185305 44 323 0.0 2.0 0.00 0.01 0.00 97 1004.6
20260505184804 44 326 1.0 3.0 0.00 0.01 0.00 97 1004.6
20260505184303 44 322 1.0 1.0 0.00 0.01 0.00 97 1004.6
20260505183804 44 48 1.0 1.0 0.00 0.01 0.00 97 1004.7
20260505183304 44 27 1.0 5.0 0.00 0.01 0.00 97 1004.6
20260505182804 43 334 2.0 6.0 0.00 0.01 0.00 97 1004.6
20260505182306 43 0 0.0 0.0 0.00 0.01 0.00 97 1004.6
20260505181804 43 0 0.0 1.0 0.00 0.01 0.00 97 1004.5
20260505181304 43 2 3.0 5.0 0.00 0.01 0.00 97 1004.5
20260505180804 43 308 1.0 3.0 0.00 0.01 0.00 97 1004.5
20260505180304 43 309 1.0 5.0 0.00 0.01 0.00 97 1004.5